SCP
0 0 0 0 0 0 0 0 0 0 0 0 0 0 0 0 0 0 0 0 0 0 0 0 0 0 0 0 0 0 0 0 0 0 0 0 0 0 0 0 0 0 0
0 0 0 0 0 0 0 0 0 0 0 0 0 0 0 0 0 0 0 0 0 0 0 0 0 0 0 0 0 0 0 0 0 0 0 0 0 0 0 0 0 0 0
0 0 0 0 0 0 0 0 0 0 0 0 0 0 0 0 0 0 0 0 0 0 0 0 0 0 0 0 0 0 0 0 0 0 0 0 0 0 0 0 0 0 0
0 0 0 0 0 0 0 0 0 0 0 0 0 0 0 0 0 0 0 0 0 0 0 0 0 0 0 0 0 0 0 0 0 0 0 0 0 0 0 0 0 0 0
0 0 0 0 0 0 0 0 0 0 0 0 0 0 0 0 0 0 0 0 0 0 0 0 0 0 0 0 0 0 0 0 0 0 0 0 0 0 0 0 0 0 0
0 0 0 0 0 0 0 0 0 0 0 0 0 0 0 0 0 0 0 0 0 0 0 0 0 0 0 0 0 0 0 0 0 0 0 0 0 0 0 0 0 0 0
0 0 0 0 0 0 0 0 0 0 0 0 0 0 0 0 0 0 0 0 0 0 0 0 0 0 0 0 0 0 0 0 0 0 0 0 0 0 0 0 0 0 0
0 0 0 0 0 0 0 0 0 0 0 0 0 0 0 0 0 0 0 0 0 0 0 0 0 0 0 0 0 0 0 0 0 0 0 0 0 0 0 0 0 0 0
0 0 0 0 -0 0 0 0 0 0 0 0 0 0 0 0 0 0 0 0 0 0 0 0 0 0 0 0 0 0 0 0 0 0 0 0 0 0 0 0 0 0 0
0 0 0 0 0 0 -0 0 0 0 0 0 0 0 0 0 0 0 0 0 0 0 0 0 0 0 0 0 0 0 0 0 0 0 0 0 0 0 0 0 0 0 0
0 0 0 0 0 0 0 0 0 0 0 0 0 0 0 0 0 0 0 0 0 0 0 0 0 0 0 0 0 0 0 0 0 0 0 0 0 0 0 0 0 0 0
0 0 0 0 0 0 0 0 0 0 0 0 0 0 0 0 0 0 0 0 0 0 0 0 0 0 0 0 0 0 0 0 0 0 0 0 0 0 0 0 0 0 0
-0 -0 -0 0 0 0 0 0 0 0 0 0 0 0 0 0 0 0 0 0 0 0 0 0 0 0 0 0 0 0 0 0 0 0 0 0 0 0 0 0 0 0 0
-0 -0 -0 -0 0 0 0 0 0 0 0 0 0 0 0 0 0 0 0 0 0 0 0 0 0 0 0 0 0 0 0 0 0 0 0 0 0 0 0 0 0 0 0
0 -0 -0 -0 -0 0 0 0 0 0 0 0 0 0 0 0 0 0 0 0 0 0 0 0 0 0 0 0 0 0 0 0 0 0 0 0 0 0 0 0 0 0 0
-0 -0 -0 -0 -0 -0 0 0 0 0 0 0 0 0 0 0 0 0 0 0 0 0 0 0 0 0 0 0 0 0 0 0 0 0 0 0 0 0 0 0 0 0 0
-0 -0 -0 0 -0 -0 -0 0 0 0 0 0 0 0 0 0 0 0 0 0 0 0 0 0 0 0 0 0 0 0 0 0 0 0 0 0 0 0 0 0 0 0 0
-0 0 0 0 0 0 0 0 0 0 0 0 0 0 0 0 0 0 0 0 0 0 0 0 0 0 0 0 0 0 0 0 0 0 0 0 0 0 0 0 0 0 0
0 0 0 -0 0 -0 -0 -0 -0 0 0 0 0 0 0 0 0 0 0 0 0 0 0 0 0 0 0 0 0 0 0 0 0 0 0 0 0 0 0 0 0 0 0
0 0 0 0 0 0 0 -0 -0 0 0 0 0 0 0 0 0 0 0 0 0 0 0 0 0 0 0 0 0 0 0 0 0 0 0 0 0 0 0 0 0 0 0
0 0 0 0 0 0 0 0 0 0 0 -0 0 -0 -0 -0 -0 -0 -0 -0 -0 0 0 0 0 0 0 0 0 0 0 0 0 0 0 0 0 0 0 0 0 0 0
0 0 0 0 0 0 0 -0 -0 0 0 0 -0 -0 -0 -0 -0 -0 -0 -0 -0 -0 -0 0 0 0 0 0 0 0 0 0 0 0 0 0 0 0 0 0 0 0 0
0 0 0 0 -0 -0 -0 -0 -0 0 0 0 0 0 0 0 -0 -0 -0 -0 -0 -0 -0 -0 0 0 0 0 0 0 0 0 0 0 0 0 0 0 0 0 0 0 0
0 0 0 0 0 0 -0 -0 -0 -0 -0 -0 -0 -0 -0 -0 -0 -0 -0 -0 -0 -0 -0 -0 0 -0 -0 0 0 0 0 0 0 0 0 0 0 0 0 0 0 0 0
0 0 0 0 0 0 0 -0 -0 -0 -0 -0 -0 -0 -0 -0 -0 -0 -0 -0 -0 -0 -0 -0 -0 -0 -0 -0 -0 0 -0 0 0 0 0 0 0 0 0 0 0 0 0
0 0 0 0 0 0 -0 -0 -0 -0 -0 -0 -0 -0 -0 0 0 0 -0 -0 -0 0 0 0 -0 -0 -0 -0 -0 -0 0 0 0 0 0 0 0 0 0 0 0 0 0
Wind_Speed_500mb
22 40 66 61 61 70 71 67 73 77 79 73 68 70 76 70 67 66 61 59 56 60 58 56 53 53 52 47 42 38 38 38 36 33 34 34 37 37 37 38 40 42 39
41 32 34 65 66 65 60 67 70 74 79 84 78 75 74 74 70 67 65 63 61 65 62 64 63 57 53 53 51 48 47 45 43 40 32 23 38 46 45 44 45 45 46
34 46 29 48 69 69 68 62 64 71 73 75 88 81 72 68 70 71 69 67 66 65 74 70 67 64 60 59 60 57 56 53 49 45 31 19 22 28 46 52 51 49 49
53 49 44 23 62 64 62 59 59 68 74 70 80 97 88 82 81 79 73 69 70 69 73 79 75 70 69 68 63 61 61 59 57 52 55 48 28 22 19 38 49 54 54
38 49 48 54 48 47 59 63 64 66 74 79 82 93 102 64 84 82 80 75 72 74 73 79 81 76 76 75 71 69 68 68 63 63 58 60 57 48 44 35 40 46 49
48 31 26 35 32 39 51 63 67 70 75 77 85 88 83 73 76 87 81 84 80 77 79 79 82 83 79 81 80 76 74 73 71 68 69 69 69 68 62 56 57 50 45
51 50 46 43 34 31 33 62 71 72 70 78 81 86 83 75 72 72 84 84 85 83 84 87 90 91 87 84 81 82 84 83 81 79 77 77 76 76 70 68 67 66 61
55 52 48 51 49 48 37 32 75 73 69 72 78 86 88 81 80 76 81 88 89 87 79 82 91 95 94 90 89 89 89 92 91 89 89 86 83 82 82 79 74 77 77
59 58 56 50 55 49 47 40 52 84 76 71 71 82 83 86 79 69 75 78 82 83 76 74 80 90 95 95 95 98 99 97 98 95 96 96 93 92 89 85 83 85 70
51 50 52 53 55 54 56 54 51 76 83 74 70 80 77 80 77 66 70 76 72 68 79 71 73 78 85 90 95 101 104 105 105 103 101 100 99 102 99 98 93 91 96
49 48 46 50 50 56 58 38 49 59 72 67 67 75 73 70 71 69 55 60 76 76 85 81 73 75 80 81 88 94 101 103 107 109 110 108 100 105 107 107 105 103 101
47 44 37 33 28 22 16 21 34 45 51 57 56 59 64 63 66 65 58 45 47 77 78 77 78 86 83 86 87 89 96 100 104 105 109 110 106 108 107 112 114 113 112
61 54 46 42 33 26 16 10 14 30 43 47 51 50 67 65 63 59 58 46 54 49 56 61 83 94 87 93 85 88 97 94 100 102 105 104 104 110 113 112 113 113 116
68 68 64 58 50 43 40 43 28 22 16 19 28 41 37 46 44 55 65 62 57 51 51 55 61 69 80 90 88 97 97 100 105 99 98 100 104 107 108 112 114 112 114
72 71 68 64 62 56 62 63 60 50 38 27 23 23 19 20 33 41 47 44 47 48 56 60 61 68 76 71 86 84 88 93 99 96 93 90 101 96 98 100 107 112 118
52 54 58 61 67 73 73 69 66 59 51 48 44 37 27 13 8 6 10 17 26 33 32 39 48 57 55 64 73 86 90 91 91 97 100 101 102 98 101 98 97 111 120
40 47 51 55 56 58 55 60 62 56 50 46 46 43 40 35 31 27 22 23 16 14 18 15 21 24 32 37 42 46 56 66 75 77 80 84 87 88 90 92 89 96 114
38 42 44 47 50 53 56 51 50 46 43 43 43 45 36 33 30 24 24 24 26 30 27 30 32 35 37 35 42 36 42 38 40 43 48 59 64 64 74 76 78 80 82
30 37 37 41 47 49 51 52 52 49 46 51 50 46 42 37 31 28 27 24 23 26 30 35 37 41 45 44 50 52 55 50 52 46 43 51 50 50 44 48 47 44 54
22 30 34 42 46 49 50 50 53 54 55 53 50 48 45 42 41 38 36 33 29 25 24 27 32 38 45 45 53 55 57 64 65 59 54 56 52 54 38 41 40 45 41
16 23 28 36 41 43 45 48 50 56 51 48 47 46 47 46 46 44 44 43 42 39 39 37 35 29 30 30 34 39 44 51 54 54 55 56 55 48 52 53 51 44 41
9 14 20 27 32 35 40 44 49 47 45 46 46 48 50 49 48 48 51 53 55 57 57 57 54 53 48 42 39 36 33 38 44 45 46 45 42 42 46 44 35 32 33
6 10 15 20 26 31 37 41 45 43 42 44 47 49 49 49 50 51 54 57 60 63 65 67 67 64 61 55 47 39 35 34 37 39 38 37 33 30 30 29 26 25 28
4 2 6 13 21 29 34 38 40 41 41 42 43 42 42 44 47 51 52 53 57 60 62 66 69 69 67 64 59 56 46 37 35 35 36 36 34 30 23 24 18 18 19
5 3 3 9 15 22 26 31 35 37 39 40 40 42 44 46 48 51 54 57 57 60 62 64 64 67 67 62 56 51 44 42 41 36 32 33 32 28 22 18 14 12 18
8 6 4 3 10 15 21 26 32 37 39 39 41 42 42 44 45 46 47 49 48 51 55 59 63 63 61 60 55 47 44 42 35 31 30 33 31 26 20 16 12 14 19
Wind_Direction_500mb
265 247 239 228 215 215 220 214 212 215 218 211 210 213 215 216 221 227 230 228 217 207 209 210 212 210 217 218 221 215 217 218 219 219 221 226 227 232 233 234 236 240 238
278 282 255 236 218 213 220 221 217 218 217 220 214 214 219 221 226 230 232 230 223 212 209 215 216 219 221 221 224 222 219 221 225 221 220 229 236 238 236 237 239 240 241
282 269 287 249 226 218 220 226 226 223 218 218 221 220 221 226 227 230 233 231 229 218 218 219 220 222 226 228 225 223 227 229 228 224 219 211 221 232 237 240 241 241 243
265 266 277 284 237 232 231 233 236 231 223 220 225 223 225 224 230 232 235 235 233 226 221 225 228 226 227 230 232 228 231 235 236 231 227 231 236 224 234 238 241 243 242
329 288 276 276 260 250 246 242 240 239 233 227 223 223 224 234 236 238 241 238 235 234 229 227 230 230 228 232 237 233 232 237 239 240 239 236 239 241 243 248 246 243 246
349 343 345 299 304 263 251 244 245 242 238 233 227 222 221 226 236 236 239 240 238 235 234 234 234 236 237 236 238 241 241 242 243 244 246 244 240 243 241 243 253 256 256
345 339 326 322 303 310 288 250 240 244 243 239 234 228 226 229 232 239 238 240 239 238 237 235 236 240 241 243 243 241 247 247 245 248 249 249 248 252 254 255 256 259 259
330 332 321 312 306 298 289 274 251 239 243 245 240 238 233 231 232 236 240 239 243 242 246 241 241 244 246 245 247 247 248 251 253 251 252 253 253 252 253 252 252 252 255
329 325 315 307 303 296 287 275 249 244 239 247 246 239 238 235 237 237 238 242 243 245 257 252 248 249 250 250 247 248 252 252 255 256 256 256 258 256 254 254 254 253 247
327 325 320 311 301 300 289 279 272 237 241 245 246 241 238 238 238 239 235 240 246 247 253 256 254 253 254 253 251 250 253 253 256 258 259 258 258 259 258 256 255 254 255
337 332 317 308 301 297 292 281 264 233 234 240 242 242 243 247 237 239 237 243 245 251 251 250 258 258 258 258 255 254 254 253 257 258 259 262 263 261 261 261 258 256 254
356 0 354 332 327 314 295 255 236 222 224 230 236 246 249 250 246 238 247 256 257 256 241 261 264 265 262 262 259 260 258 255 256 258 258 261 265 265 264 263 262 260 261
14 13 16 17 16 27 48 133 181 216 221 225 229 224 221 230 240 250 250 247 250 254 258 261 263 264 258 264 265 268 262 261 260 260 260 264 265 263 266 266 266 265 263
21 31 25 24 26 33 56 88 112 124 140 194 216 226 232 223 224 223 229 233 238 251 262 266 268 269 270 270 268 266 266 265 264 264 265 265 264 265 267 267 269 270 269
23 32 30 31 37 42 64 76 83 87 90 108 115 127 155 193 220 240 251 251 244 245 251 258 258 265 268 273 272 271 267 271 270 269 269 271 269 271 271 271 272 271 268
29 29 32 31 32 44 49 59 66 73 77 80 81 80 78 102 212 231 251 279 242 246 250 248 254 256 254 242 249 254 254 257 262 264 266 269 269 272 272 274 277 275 271
19 30 34 36 44 44 46 51 51 51 55 65 71 68 62 58 54 46 33 25 20 355 342 318 306 291 282 284 272 269 260 257 256 259 265 269 270 271 271 271 267 266 262
29 33 36 45 49 56 59 63 65 64 55 57 58 59 56 50 42 32 25 11 4 358 348 342 334 329 320 314 310 299 306 300 288 282 282 281 278 275 271 271 266 263 260
33 36 40 47 51 53 58 60 63 63 63 61 59 56 54 52 47 40 30 18 5 349 339 329 325 316 311 310 309 305 301 304 300 299 300 298 303 286 278 273 271 275 272
35 39 42 48 50 52 53 52 53 53 52 51 51 50 50 49 48 45 39 29 19 4 351 332 320 310 303 300 295 292 293 289 288 288 293 292 287 290 284 285 278 276 274
33 41 45 48 49 48 48 49 49 50 47 48 48 49 49 48 45 44 43 41 39 35 31 25 17 1 342 330 312 301 297 294 294 297 296 293 282 276 275 275 270 273 269
22 42 46 46 48 48 45 47 49 48 46 47 47 45 45 43 41 38 37 33 31 30 28 26 22 18 11 1 347 336 323 316 312 309 306 304 300 296 288 274 270 269 263
11 26 31 38 43 43 43 43 44 42 40 44 44 40 38 37 37 35 34 32 29 26 23 20 18 16 12 7 1 354 343 331 319 316 312 311 313 312 296 285 277 262 260
330 10 45 33 32 32 34 37 36 35 33 33 35 39 39 36 35 35 35 32 29 25 22 20 16 13 13 10 7 359 351 345 332 325 321 324 329 326 316 294 273 263 256
261 262 4 23 29 28 29 30 30 29 27 25 31 32 33 36 40 39 37 34 29 25 22 21 18 15 16 18 11 0 354 345 336 336 338 340 341 334 318 298 289 258 240
249 252 251 351 15 19 22 23 22 24 23 22 28 30 31 34 34 35 40 40 36 27 22 17 15 18 18 14 16 15 9 1 359 358 2 4 356 340 327 309 271 242 237
Wind_Speed_850mb
22 40 66 61 61 70 71 67 73 77 79 73 68 70 76 70 67 66 61 59 56 60 58 56 53 53 52 47 42 38 38 38 36 33 34 34 37 37 37 38 40 42 39
41 32 34 65 66 65 60 67 70 74 79 84 78 75 74 74 70 67 65 63 61 65 62 64 63 57 53 53 51 48 47 45 43 40 32 23 38 46 45 44 45 45 46
34 46 29 48 69 69 68 62 64 71 73 75 88 81 72 68 70 71 69 67 66 65 74 70 67 64 60 59 60 57 56 53 49 45 31 19 22 28 46 52 51 49 49
53 49 44 23 62 64 62 59 59 68 74 70 80 97 88 82 81 79 73 69 70 69 73 79 75 70 69 68 63 61 61 59 57 52 55 48 28 22 19 38 49 54 54
38 49 48 54 48 47 59 63 64 66 74 79 82 93 102 64 84 82 80 75 72 74 73 79 81 76 76 75 71 69 68 68 63 63 58 60 57 48 44 35 40 46 49
48 31 26 35 32 39 51 63 67 70 75 77 85 88 83 73 76 87 81 84 80 77 79 79 82 83 79 81 80 76 74 73 71 68 69 69 69 68 62 56 57 50 45
51 50 46 43 34 31 33 62 71 72 70 78 81 86 83 75 72 72 84 84 85 83 84 87 90 91 87 84 81 82 84 83 81 79 77 77 76 76 70 68 67 66 61
55 52 48 51 49 48 37 32 75 73 69 72 78 86 88 81 80 76 81 88 89 87 79 82 91 95 94 90 89 89 89 92 91 89 89 86 83 82 82 79 74 77 77
59 58 56 50 55 49 47 40 52 84 76 71 71 82 83 86 79 69 75 78 82 83 76 74 80 90 95 95 95 98 99 97 98 95 96 96 93 92 89 85 83 85 70
51 50 52 53 55 54 56 54 51 76 83 74 70 80 77 80 77 66 70 76 72 68 79 71 73 78 85 90 95 101 104 105 105 103 101 100 99 102 99 98 93 91 96
49 48 46 50 50 56 58 38 49 59 72 67 67 75 73 70 71 69 55 60 76 76 85 81 73 75 80 81 88 94 101 103 107 109 110 108 100 105 107 107 105 103 101
47 44 37 33 28 22 16 21 34 45 51 57 56 59 64 63 66 65 58 45 47 77 78 77 78 86 83 86 87 89 96 100 104 105 109 110 106 108 107 112 114 113 112
61 54 46 42 33 26 16 10 14 30 43 47 51 50 67 65 63 59 58 46 54 49 56 61 83 94 87 93 85 88 97 94 100 102 105 104 104 110 113 112 113 113 116
68 68 64 58 50 43 40 43 28 22 16 19 28 41 37 46 44 55 65 62 57 51 51 55 61 69 80 90 88 97 97 100 105 99 98 100 104 107 108 112 114 112 114
72 71 68 64 62 56 62 63 60 50 38 27 23 23 19 20 33 41 47 44 47 48 56 60 61 68 76 71 86 84 88 93 99 96 93 90 101 96 98 100 107 112 118
52 54 58 61 67 73 73 69 66 59 51 48 44 37 27 13 8 6 10 17 26 33 32 39 48 57 55 64 73 86 90 91 91 97 100 101 102 98 101 98 97 111 120
40 47 51 55 56 58 55 60 62 56 50 46 46 43 40 35 31 27 22 23 16 14 18 15 21 24 32 37 42 46 56 66 75 77 80 84 87 88 90 92 89 96 114
38 42 44 47 50 53 56 51 50 46 43 43 43 45 36 33 30 24 24 24 26 30 27 30 32 35 37 35 42 36 42 38 40 43 48 59 64 64 74 76 78 80 82
30 37 37 41 47 49 51 52 52 49 46 51 50 46 42 37 31 28 27 24 23 26 30 35 37 41 45 44 50 52 55 50 52 46 43 51 50 50 44 48 47 44 54
22 30 34 42 46 49 50 50 53 54 55 53 50 48 45 42 41 38 36 33 29 25 24 27 32 38 45 45 53 55 57 64 65 59 54 56 52 54 38 41 40 45 41
16 23 28 36 41 43 45 48 50 56 51 48 47 46 47 46 46 44 44 43 42 39 39 37 35 29 30 30 34 39 44 51 54 54 55 56 55 48 52 53 51 44 41
9 14 20 27 32 35 40 44 49 47 45 46 46 48 50 49 48 48 51 53 55 57 57 57 54 53 48 42 39 36 33 38 44 45 46 45 42 42 46 44 35 32 33
6 10 15 20 26 31 37 41 45 43 42 44 47 49 49 49 50 51 54 57 60 63 65 67 67 64 61 55 47 39 35 34 37 39 38 37 33 30 30 29 26 25 28
4 2 6 13 21 29 34 38 40 41 41 42 43 42 42 44 47 51 52 53 57 60 62 66 69 69 67 64 59 56 46 37 35 35 36 36 34 30 23 24 18 18 19
5 3 3 9 15 22 26 31 35 37 39 40 40 42 44 46 48 51 54 57 57 60 62 64 64 67 67 62 56 51 44 42 41 36 32 33 32 28 22 18 14 12 18
8 6 4 3 10 15 21 26 32 37 39 39 41 42 42 44 45 46 47 49 48 51 55 59 63 63 61 60 55 47 44 42 35 31 30 33 31 26 20 16 12 14 19
Wind_Direction_850mb
265 247 239 228 215 215 220 214 212 215 218 211 210 213 215 216 221 227 230 228 217 207 209 210 212 210 217 218 221 215 217 218 219 219 221 226 227 232 233 234 236 240 238
278 282 255 236 218 213 220 221 217 218 217 220 214 214 219 221 226 230 232 230 223 212 209 215 216 219 221 221 224 222 219 221 225 221 220 229 236 238 236 237 239 240 241
282 269 287 249 226 218 220 226 226 223 218 218 221 220 221 226 227 230 233 231 229 218 218 219 220 222 226 228 225 223 227 229 228 224 219 211 221 232 237 240 241 241 243
265 266 277 284 237 232 231 233 236 231 223 220 225 223 225 224 230 232 235 235 233 226 221 225 228 226 227 230 232 228 231 235 236 231 227 231 236 224 234 238 241 243 242
329 288 276 276 260 250 246 242 240 239 233 227 223 223 224 234 236 238 241 238 235 234 229 227 230 230 228 232 237 233 232 237 239 240 239 236 239 241 243 248 246 243 246
349 343 345 299 304 263 251 244 245 242 238 233 227 222 221 226 236 236 239 240 238 235 234 234 234 236 237 236 238 241 241 242 243 244 246 244 240 243 241 243 253 256 256
345 339 326 322 303 310 288 250 240 244 243 239 234 228 226 229 232 239 238 240 239 238 237 235 236 240 241 243 243 241 247 247 245 248 249 249 248 252 254 255 256 259 259
330 332 321 312 306 298 289 274 251 239 243 245 240 238 233 231 232 236 240 239 243 242 246 241 241 244 246 245 247 247 248 251 253 251 252 253 253 252 253 252 252 252 255
329 325 315 307 303 296 287 275 249 244 239 247 246 239 238 235 237 237 238 242 243 245 257 252 248 249 250 250 247 248 252 252 255 256 256 256 258 256 254 254 254 253 247
327 325 320 311 301 300 289 279 272 237 241 245 246 241 238 238 238 239 235 240 246 247 253 256 254 253 254 253 251 250 253 253 256 258 259 258 258 259 258 256 255 254 255
337 332 317 308 301 297 292 281 264 233 234 240 242 242 243 247 237 239 237 243 245 251 251 250 258 258 258 258 255 254 254 253 257 258 259 262 263 261 261 261 258 256 254
356 0 354 332 327 314 295 255 236 222 224 230 236 246 249 250 246 238 247 256 257 256 241 261 264 265 262 262 259 260 258 255 256 258 258 261 265 265 264 263 262 260 261
14 13 16 17 16 27 48 133 181 216 221 225 229 224 221 230 240 250 250 247 250 254 258 261 263 264 258 264 265 268 262 261 260 260 260 264 265 263 266 266 266 265 263
21 31 25 24 26 33 56 88 112 124 140 194 216 226 232 223 224 223 229 233 238 251 262 266 268 269 270 270 268 266 266 265 264 264 265 265 264 265 267 267 269 270 269
23 32 30 31 37 42 64 76 83 87 90 108 115 127 155 193 220 240 251 251 244 245 251 258 258 265 268 273 272 271 267 271 270 269 269 271 269 271 271 271 272 271 268
29 29 32 31 32 44 49 59 66 73 77 80 81 80 78 102 212 231 251 279 242 246 250 248 254 256 254 242 249 254 254 257 262 264 266 269 269 272 272 274 277 275 271
19 30 34 36 44 44 46 51 51 51 55 65 71 68 62 58 54 46 33 25 20 355 342 318 306 291 282 284 272 269 260 257 256 259 265 269 270 271 271 271 267 266 262
29 33 36 45 49 56 59 63 65 64 55 57 58 59 56 50 42 32 25 11 4 358 348 342 334 329 320 314 310 299 306 300 288 282 282 281 278 275 271 271 266 263 260
33 36 40 47 51 53 58 60 63 63 63 61 59 56 54 52 47 40 30 18 5 349 339 329 325 316 311 310 309 305 301 304 300 299 300 298 303 286 278 273 271 275 272
35 39 42 48 50 52 53 52 53 53 52 51 51 50 50 49 48 45 39 29 19 4 351 332 320 310 303 300 295 292 293 289 288 288 293 292 287 290 284 285 278 276 274
33 41 45 48 49 48 48 49 49 50 47 48 48 49 49 48 45 44 43 41 39 35 31 25 17 1 342 330 312 301 297 294 294 297 296 293 282 276 275 275 270 273 269
22 42 46 46 48 48 45 47 49 48 46 47 47 45 45 43 41 38 37 33 31 30 28 26 22 18 11 1 347 336 323 316 312 309 306 304 300 296 288 274 270 269 263
11 26 31 38 43 43 43 43 44 42 40 44 44 40 38 37 37 35 34 32 29 26 23 20 18 16 12 7 1 354 343 331 319 316 312 311 313 312 296 285 277 262 260
330 10 45 33 32 32 34 37 36 35 33 33 35 39 39 36 35 35 35 32 29 25 22 20 16 13 13 10 7 359 351 345 332 325 321 324 329 326 316 294 273 263 256
261 262 4 23 29 28 29 30 30 29 27 25 31 32 33 36 40 39 37 34 29 25 22 21 18 15 16 18 11 0 354 345 336 336 338 340 341 334 318 298 289 258 240
249 252 251 351 15 19 22 23 22 24 23 22 28 30 31 34 34 35 40 40 36 27 22 17 15 18 18 14 16 15 9 1 359 358 2 4 356 340 327 309 271 242 237